FLOCK 3P-87 (42044 NORAD) Tracking and Keplerian Element Data

This shows tracking and keplerian element data for the satellite.

Feedback or suggestion? Click here.




ElementValue
Catalog42044
NameFLOCK 3P-87
Epoch Orbit5485
Epoch Day46.15427382
Epoch Year2018
RAAN111.7875
Inclination97.4676
Eccentricity0.0009854
Argument of Perigee69.7796
Mean Anonmoly290.45
Mean Motion15.23914209
Decay Rate3.312E-05
L11 42044U 17008DA 18046.15427382 .00003312 00000-0 13992-3 0 9997
L22 42044 97.4676 111.7875 0009854 69.7796 290.4500 15.23914209 54853

Live tracking and technical data element details for FLOCK 3P-87 (NORAD 42044). FLOCK 3P-87 can be tracked NOW for your location showing map with azimuth and elevation plus other details from your city location.

Track the satellite on the map from your city or location and see movement details for azimuth, elevation, latitude, longitude, range, height, and movement on the map or in text.







IsCatalogInMostPopularTable: catalog: 42044, numindb: 137
Update: records affected: 1



GetName: 42044 FLOCK 3P-87

Hit Count: updated at: Sun, 16 Dec 2018 09:57:20 GMT